Regional Weather Roundup
Issued by NWS Charleston, SC

Home | Current Version | Previous Version | Text Only | Print | Product List | Glossary On
Versions: 1 2 3 4 5 6 7 8 9 10 11 12 13 14 15 16 17 18 19 20 21 22 23 24 25 26 27 28 29 30 31 32 33 34 35 36 37 38 39 40 41 42 43 44 45 46 47 48 49 50
000
ASUS42 KCHS 300428
RWRCHS

REGIONAL WEATHER ROUNDUP
NATIONAL WEATHER SERVICE CHARLESTON SC
1200 AM EDT MON MAY 30 2016

NOTE: "FAIR" INDICATES FEW OR NO CLOUDS BELOW 12,000 FEET WITH NO
SIGNIFICANT WEATHER AND/OR OBSTRUCTIONS TO VISIBILITY.

NOT ALL STATIONS ARE QUALITY CONTROLLED. USE DATA WITH CAUTION...
ESPECIALLY DEWPOINT OBSERVATIONS.

SCZ027-030-031-034>040-042>050-300500-
...SOUTHEAST SOUTH CAROLINA...

CITY           SKY/WX    TMP DP  RH WIND       PRES   REMARKS
N CHARLESTON   CLOUDY    71  67  87 NE6       29.93S
WATERFRONT PRK   N/A     71  69  93 VRB2      29.90S
MOUNT PLEASANT DRIZZLE   70  70 100 CALM      29.91F
JOHNS ISLAND   MOCLDY    72  70  94 SW6       29.93R
PINOPOLIS        N/A     73  70  88 E6        29.87R
MONCKS CORNER  CLOUDY    68  64  88 N3        29.94S
SUMMERVILLE    DRIZZLE   70  70 100 CALM      29.95S
BEAUFORT MCAS  CLOUDY    69  67  93 W12       29.96R
BEAUFORT ARPT  CLOUDY    70  68  94 W8        29.95S
HILTON HEAD IS CLOUDY    68  68 100 VRB7G13   29.98S
WALTERBORO     CLOUDY    72  72 100 NW7       29.94F FOG
ALLENDALE      LGT RAIN  70  68  94 N6        29.97F

...SOUTHERN MIDLANDS AND PEE DEE...

CITY           SKY/WX    TMP DP  RH WIND       PRES   REMARKS
GEORGETOWN     LGT RAIN  70  68  94 SE7       29.95S
KINGSTREE      CLOUDY    70  68  94 CALM      29.95F
ORANGEBURG     CLOUDY    72  68  87 N6        29.96S
BARNWELL       CLOUDY    72  72 100 NW5       29.99S
AIKEN          CLOUDY    70  61  73 N8        30.04S
MANNING        CLOUDY    68  68 100 CALM      29.95S
COLUMBIA       CLOUDY    73  65  75 NW6       29.98R
SUMTER         LGT RAIN  70  68  94 N13       29.94S
FLORENCE       LGT RAIN  73  69  87 E8        29.98S
MYRTLE BEACH   CLOUDY    73  64  73 SE10      29.98S
N MYRTLE BEACH CLOUDY    75  69  81 SE5       29.97F

$$

GAZ063-065-086>088-099>101-113>116-118-119-134>141-150-300500-
...SOUTHEAST GEORGIA...

CITY           SKY/WX    TMP DP  RH WIND       PRES   REMARKS
SAVANNAH ARPT  CLOUDY    71  63  75 NW12      29.98F
HUNTER AAF     PTCLDY    70  67  89 W6        29.96S
FORT STEWART   CLOUDY    74  61  63 CALM      29.98S
STATESBORO     CLOUDY    70  66  87 NW8       30.00S
SYLVANIA       CLOUDY    72  66  83 NW8       30.00F
CLAXTON        MOCLDY    72  65  78 W5        30.00S

...CSRA...CENTRAL AND FAR SOUTHEAST GEORGIA...

CITY           SKY/WX    TMP DP  RH WIND       PRES   REMARKS
THOMSON        CLEAR     65  65 100 CALM      30.08S
AUGUSTA-BUSH   CLOUDY    72  61  68 N10       30.00S
AUGUSTA-DANIEL CLOUDY    73  59  61 N8        30.02S
SWAINSBORO     FAIR      70  63  78 CALM      30.03S
VIDALIA        MOCLDY    73  61  64 NW5       30.03R
EASTMAN        CLOUDY    70  70 100 CALM      30.06S
HAZLEHURST     MOCLDY    73  64  73 CALM      30.02S
ALMA           PTCLDY    67  64  90 CALM      30.02F
WAYCROSS       CLEAR     68  64  86 CALM      30.03S
JESUP          CLOUDY    64  57  77 CALM      30.01F
BAXLEY         FAIR      70  64  83 CALM      30.02S
BRUNSWICK      CLOUDY    79  63  57 W3        30.01F
SAINT SIMONS   CLOUDY    76  61  59 CALM      30.01S

$$

SCZ027-028-034-036>038-045-046-048>050-GAZ119-141-300500-
...LAKE AND SUPPLEMENTAL COASTAL OBSERVATIONS...

STATION/POSITION TIME  TEMP    WIND        PRES    WAVE   SWELL
                       AIR SEA DIR/SP/G            HT/PER HT/PER/DIR
                 (UTC) (F)     (DEG/KT/KT) (MB)    (FT/S) (FT/S/D)
WINYAH BAY       0345   72     130/  8     1013.0S
LAKE MURRAY      0300   71     350/  4/  7 1015.2R
ACE BASIN NERRS  0300   70     280/  1     1014.0R
FORT PULASKI     0400   72 76  280/ 11/ 12 1015.4
SAPELO ISLAND    0400   76     270/  5     1016.0S

$$

ANZ835-935-AMZ111-154-330-350-352-354-370-450-454-472-300500-
...C-MAN AND BUOY OBSERVATIONS...

STATION/POSITION TIME  TEMP    WIND        PRES    WAVE   SWELL
                       AIR SEA DIR/SP/G            HT/PER HT/PER/DIR
                 (UTC) (F)     (DEG/KT/KT) (MB)    (FT/S) (FT/S/D)
BUOY 41004       0350   73 77  190/ 19/ 23 1012.8F   6/ 7
BUOY 41008       0350   76 76  260/ 14/ 17 1015.5S   2/ 4   2/ 80/ 8
FOLLY BEACH CMAN 0400   71     360/  6/  7 1013.2S
CAPERS NEARSHORE 0408   72 76  110/ 12/ 16 1012.5F
FRIPP NEARSHORE  0408   71 75  280/ 16/ 23 1013.3R


STATION/POSITION TIME  TEMP    WIND        PRES    WAVE   SWELL
                       AIR SEA DIR/SP/G            HT/PER HT/PER/DIR
                 (UTC) (F)     (DEG/KT/KT) (MB)    (FT/S) (FT/S/D)
5E ST. MARYS GA  0401      79                N/A     2/ 8
FRYING PAN BUOY  0400   78 78  180/ 16/ 19 1015.0F
BUOY 41025       0350   78 81  160/ 21/ 27 1017.1F   5/ 8   2/300/19
CAPE LOOKOUT NC  0400   76     150/  9/ 10 1016.5F
BUOY 41002       0350   75 76  130/ 14/ 17 1017.7F   5/ 8   3/100/ 8
BUOY 41010       0320   78 79  150/  6/  8 1017.8F
ST AUGUSTINE FL  0400   75 80  220/  7/  8 1017.6F


$$




USA.gov is the U.S. government's official web portal to all federal, state and local government web resources and services.